#timestamp,LO_Frequency,Hit 
1504972815.1,286046999.0,N
1504972816.0,286046999.0,N
1504972835.8,286047001.0,N
1504972855.6,286046998.6,N
1504972875.5,286046998.4,N
1504972895.3,286046999.2,N
1504972915.1,286046997.1,N
1504972935.9,286046997.3,N
1504972955.7,286046995.4,P
1504972975.5,286047000.8,N
1504972995.4,286047002.4,N
1504973015.2,286047001.0,N
1504973035.0,286046999.9,N
1504973035.9,286046999.9,N
1504973055.8,286046999.8,N
1504973075.6,286047002.7,N
1504973095.4,286047002.7,N
1504973115.3,286047000.8,N
1504973135.1,286046998.9,N
1504973136.0,286046998.9,N
1504973155.8,286046997.5,N
1504973175.7,286046998.7,N
1504973195.5,286046997.7,N
1504973215.3,286046998.9,N
1504973235.1,286046998.1,N
1504973255.9,286046998.7,N
1504973275.7,286047000.5,N
1504973295.5,286047000.8,N
1504973315.4,286047000.1,N
1504973335.2,286047000.9,N
1504973355.0,286046999.4,N
1504973355.9,286046999.4,N
1504973375.8,286046998.6,N
1504973395.6,286046999.2,N
1504973415.4,286046997.6,N
1504973435.3,286046993.4,P
1504973455.1,286046996.9,N
1504973456.0,286046996.9,N
1504973475.8,286046995.6,N
1504973495.7,286046995.6,N
1504973515.5,286046996.7,N
1504973535.3,286047001.2,N
1504973555.2,286047000.6,N
1504973575.9,286046998.4,N
1504973595.7,286046996.7,N
1504973615.5,286046998.3,N
1504973635.4,286046997.5,N
1504973655.2,286046993.4,P
1504973675.1,286047001.1,N
1504973676.0,286047001.1,N
1504973695.8,286046997.0,N
1504973715.6,286046999.9,N
1504973735.4,286046999.7,N
1504973755.3,286047002.3,N
1504973775.1,286047002.3,N
1504973795.8,286047002.0,N
1504973815.7,286047000.2,N
1504973835.5,286046999.8,N
1504973855.3,286046999.3,N
1504973875.2,286046998.4,N
1504973895.9,286047000.6,N
1504973915.7,286046998.3,N
1504973935.6,286047001.2,N
1504973955.4,286046999.0,N
1504973975.2,286046998.5,N
1504973995.1,286046999.8,N
1504973996.0,286046999.8,N
1504974015.8,286047002.1,N
1504974035.6,286047002.8,N
1504974055.4,286047000.2,N
1504974075.3,286047002.8,N
1504974095.1,286047002.8,N
1504974115.8,286047001.0,N
1504974135.7,286046998.5,N
1504974155.5,286046997.7,N
1504974175.3,286046997.6,N
1504974195.2,286046999.0,N
1504974215.9,286046996.3,N
1504974235.7,286046995.5,N
1504974255.6,286046997.8,N
1504974275.4,286046996.3,N
1504974295.6,286046998.0,N
1504974315.5,286046999.3,N
1504974335.3,286046999.1,N
1504974355.1,286046995.0,N
1504974375.9,286046997.6,N
1504974395.7,286046991.8,P
1504974415.5,286046995.4,N
1504974435.4,286046993.9,N
1504974455.2,286046993.4,N
1504974475.0,286046999.6,N
1504974475.9,286046999.6,N
1504974495.8,286046995.4,N
1504974515.6,286046996.5,N
1504974535.4,286047000.9,N
1504974555.3,286047002.3,N
1504974575.1,286047001.0,N
1504974576.0,286047001.0,N
1504974595.8,286046999.0,N
1504974615.7,286046997.1,N
1504974635.5,286046996.9,N
1504974655.3,286046998.9,N
1504974675.1,286046999.4,N
1504974695.9,286046999.3,N
1504974715.7,286047000.6,N
1504974735.5,286046999.4,N
1504974755.4,286046997.3,N
1504974775.2,286046994.0,N
1504974795.0,286046991.7,P
1504974795.9,286046991.7,N
1504974815.8,286046999.2,N
1504974835.6,286046998.5,N
1504974855.4,286047000.0,N
1504974875.3,286047004.1,N
1504974895.1,286047005.2,N
1504974915.8,286047005.4,N
1504974935.7,286047005.1,N
1504974955.5,286047003.7,N
1504974975.3,286047003.0,N
1504974995.2,286047004.0,N
1504975015.9,286047003.7,N
1504975035.7,286047005.8,N
1504975055.5,286047002.4,N
1504975075.4,286047002.6,N
1504975095.2,286046996.7,N
1504975115.0,286046994.9,N
1504975115.9,286046994.9,N
1504975135.8,286046997.1,N
1504975155.6,286046998.0,N
1504975175.4,286046996.1,N
1504975195.3,286046998.0,N
1504975215.1,286046995.5,N
1504975235.8,286046996.1,N
1504975255.7,286046995.4,N
1504975275.5,286046997.3,N
1504975295.3,286046999.0,N
1504975315.2,286046997.9,N
1504975335.9,286046995.1,N
1504975355.7,286046998.7,N
1504975375.5,286046997.8,N
1504975395.4,286046998.0,N
1504975415.2,286047001.9,N
1504975435.0,286047002.9,N
1504975435.9,286047002.9,N
1504975455.8,286047001.3,N
1504975475.6,286047002.1,N
1504975495.4,286047005.6,N
1504975515.3,286047005.4,N
1504975535.1,286047000.4,N
1504975555.8,286047003.6,N
1504975575.7,286047003.5,N
1504975595.5,286047003.4,N
1504975615.3,286047003.6,N
1504975635.2,286047000.1,N
1504975655.9,286046999.7,N
1504975675.7,286046997.5,N
1504975695.5,286046996.6,N
1504975715.4,286047003.9,N
1504975735.2,286047003.6,N
1504975755.0,286047005.3,N
1504975755.9,286047005.3,N
1504975775.8,286047005.5,N
1504975795.6,286047006.4,N
1504975815.4,286047006.0,N
1504975835.3,286047007.5,N
1504975855.1,286047006.8,N
1504975856.0,286047006.8,N
1504975875.8,286047000.2,N
1504975895.7,286047000.2,N
1504975915.5,286047001.4,N
1504975935.3,286047000.3,N
1504975955.2,286047001.3,N
1504975975.9,286047003.0,N
1504975995.7,286047000.7,N
1504976015.5,286046997.5,N
1504976035.4,286046999.5,N
1504976055.2,286046997.4,N
1504976075.0,286046997.3,N
1504976075.9,286046997.3,N
1504976095.8,286047000.4,N
1504976115.6,286046998.0,N
1504976135.4,286046995.3,N
1504976155.3,286046997.6,N
1504976175.1,286046996.9,N
1504976195.8,286046996.5,N
1504976215.7,286046997.0,N
1504976235.5,286047001.0,N
1504976255.3,286046997.6,N
1504976275.2,286047004.4,N
1504976295.9,286047005.3,N
1504976315.7,286047003.5,N
1504976335.6,286047005.9,N
1504976355.4,286047005.3,N
1504976375.2,286047004.8,N
1504976395.0,286047004.5,N
1504976396.0,286047004.5,N
